KB0OLA Weather Reports


time (UTC)temp
C
wind
direction
speed
KPH
gust
KPH
rain 1hr
cm
rain 24hr
cm
rain mn
cm
humidity
%
barometer
mb
20260505051517 15 158 1.6 6.4 0.00 0.00 0.00 43 1008.1
20260505050537 15 135 4.8 11.3 0.00 0.00 0.00 42 1008.0
20260505041516 16 203 6.4 14.5 0.00 0.00 0.00 40 1007.6
20260505040517 16 180 4.8 11.3 0.00 0.00 0.00 40 1007.5
20260505035517 16 180 3.2 9.7 0.00 0.00 0.00 40 1007.4
20260505034517 16 158 4.8 14.5 0.00 0.00 0.00 40 1007.2
20260505033517 15 180 6.4 14.5 0.00 0.00 0.00 40 1007.0
20260505032517 15 0.0 0.0 0.00 0.00 0.00 41 1006.8
20260505031517 16 0.0 0.0 0.00 0.00 0.00 40 1006.6
20260505030517 16 0.0 0.0 0.00 0.00 0.00 36 1006.4
20260505025517 17 0.0 0.0 0.00 0.00 0.00 36 1006.2
20260505024517 17 0.0 0.0 0.00 0.00 0.00 35 1006.1
20260505023517 18 0.0 0.0 0.00 0.00 0.00 33 1006.0
20260505022517 18 180 1.6 6.4 0.00 0.00 0.00 32 1006.0
20260505021516 18 0.0 3.2 0.00 0.00 0.00 31 1006.1
20260505020537 18 0.0 4.8 0.00 0.00 0.00 31 1005.9
20260505015517 19 180 4.8 11.3 0.00 0.00 0.00 29 1005.9
20260505014516 20 180 4.8 8.0 0.00 0.00 0.00 29 1005.9
20260505013516 20 203 6.4 12.9 0.00 0.00 0.00 28 1005.9
20260505012518 20 180 6.4 16.1 0.00 0.00 0.00 28 1005.9
20260505011518 20 180 4.8 12.9 0.00 0.00 0.00 27 1006.0
20260505010518 21 180 3.2 9.7 0.00 0.00 0.00 27 1006.1
20260505005518 21 180 4.8 9.7 0.00 0.00 0.00 28 1006.1
20260505004539 21 180 4.8 9.7 0.00 0.00 0.00 27 1006.2
20260505003518 21 203 8.0 17.7 0.00 0.00 0.00 28 1006.3
20260505002518 22 180 8.0 16.1 0.00 0.00 0.00 27 1006.4
20260505001538 22 180 6.4 16.1 0.00 0.00 0.00 27 1006.4
20260505000538 22 180 8.0 17.7 0.00 0.00 0.00 27 1006.5
20260504235518 22 180 9.7 24.1 0.00 0.00 0.00 27 1006.5
20260504234518 22 203 14.5 25.7 0.00 0.00 0.00 28 1006.6
20260504233518 22 225 9.7 19.3 0.00 0.00 0.00 25 1006.5
20260504232518 22 225 8.0 19.3 0.00 0.00 0.00 25 1006.6
20260504231518 22 225 4.8 12.9 0.00 0.00 0.00 26 1006.5
20260504230518 22 225 8.0 19.3 0.00 0.00 0.00 26 1006.7
20260504225518 21 248 11.3 24.1 0.00 0.00 0.00 27 1006.7
20260504224518 22 248 12.9 25.7 0.00 0.00 0.00 27 1006.6
20260504223518 22 248 12.9 27.4 0.00 0.00 0.00 26 1006.5
20260504222518 23 248 14.5 25.7 0.00 0.00 0.00 26 1006.5
20260504221518 23 248 6.4 14.5 0.00 0.00 0.00 22 1006.4
20260504220538 24 293 6.4 17.7 0.00 0.00 0.00 21 1006.6
20260504215517 23 203 6.4 12.9 0.00 0.00 0.00 22 1006.7
20260504214518 23 293 4.8 12.9 0.00 0.00 0.00 22 1006.9
20260504213517 23 293 8.0 17.7 0.00 0.00 0.00 22 1007.0
20260504212517 23 315 4.8 17.7 0.00 0.00 0.00 21 1007.2
20260504211518 23 180 6.4 16.1 0.00 0.00 0.00 22 1007.2
20260504210517 23 270 8.0 20.9 0.00 0.00 0.00 23 1007.4
20260504205517 23 270 3.2 12.9 0.00 0.00 0.00 23 1007.5
20260504204518 23 270 8.0 25.7 0.00 0.00 0.00 24 1007.5
20260504203517 23 248 6.4 14.5 0.00 0.00 0.00 25 1007.7
20260504202518 23 225 3.2 14.5 0.00 0.00 0.00 27 1007.8
20260504201517 23 270 6.4 16.1 0.00 0.00 0.00 27 1007.8
20260504200517 23 248 1.6 12.9 0.00 0.00 0.00 27 1007.9
20260504195517 23 270 3.2 16.1 0.00 0.00 0.00 30 1008.0
20260504194517 22 0.0 6.4 0.00 0.00 0.00 28 1008.1
20260504193517 22 270 1.6 8.0 0.00 0.00 0.00 27 1008.3
20260504192517 22 248 4.8 14.5 0.00 0.00 0.00 26 1008.4
20260504191517 22 270 8.0 16.1 0.00 0.00 0.00 26 1008.5
20260504190518 22 0.0 3.2 0.00 0.00 0.00 28 1008.6
20260504185517 21 0.0 0.0 0.00 0.00 0.00 28 1008.7
20260504184517 22 248 3.2 9.7 0.00 0.00 0.00 26 1008.7
20260504183517 22 248 4.8 14.5 0.00 0.00 0.00 28 1008.9
20260504182517 22 180 3.2 8.0 0.00 0.00 0.00 27 1009.1
20260504181537 21 0.0 0.0 0.00 0.00 0.00 32 1009.2
20260504180517 21 203 1.6 12.9 0.00 0.00 0.00 32 1009.4
20260504175537 21 225 3.2 11.3 0.00 0.00 0.00 29 1009.5
20260504174516 21 0.0 1.6 0.00 0.00 0.00 30 1009.5
20260504173517 21 135 6.4 14.5 0.00 0.00 0.00 30 1009.6
20260504172516 21 135 3.2 8.0 0.00 0.00 0.00 31 1009.7
20260504171517 20 180 4.8 12.9 0.00 0.00 0.00 33 1009.7
20260504170517 20 180 3.2 11.3 0.00 0.00 0.00 33 1009.8
20260504150516 16 0.0 0.0 0.00 0.00 0.00 43 1010.1
20260504140518 11 0.0 0.0 0.00 0.00 0.00 53 1010.2
20260504130518 8 0.0 0.0 0.00 0.00 0.00 54 1010.2
20260504110517 10 0.0 0.0 0.00 0.00 0.00 42 1010.2
20260504100537 10 0.0 0.0 0.00 0.00 0.00 43 1009.9
20260504081518 8 0.0 0.0 0.00 0.00 0.00 44 1009.0
20260504080517 8 0.0 0.0 0.00 0.00 0.00 44 1009.0